Regional Weather Roundup
Issued by NWS

Home | Current Version | Previous Version | Text Only | Print | Product List | Glossary On
Versions: 1 2 3 4 5 6 7 8 9 10 11 12 13 14 15 16 17 18 19 20 21 22 23 24 25 26 27 28 29 30 31 32 33 34 35 36 37 38 39 40 41 42 43 44 45 46 47 48 49 50
000
ASUS43 KBIS 250610
RWRND

NORTH DAKOTA REGIONAL WEATHER ROUNDUP
NATIONAL WEATHER SERVICE BISMARCK ND
100 AM CDT MON MAY 25 2015

NOTE: "FAIR" INDICATES FEW OR NO CLOUDS BELOW 12,000 FEET WITH NO
SIGNIFICANT WEATHER AND/OR OBSTRUCTIONS TO VISIBILITY.


NDZ001>003-009>011-017-250700-
NORTHWEST NORTH DAKOTA

CITY           SKY/WX    TMP DP  RH WIND       PRES   REMARKS
WILLISTON      MOCLDY    48  44  86 N3        29.91S
6HR MIN TEMP:  48; 6HR MAX TEMP:  75;

MINOT          CLOUDY    56  47  71 CALM      29.89F
MINOT AFB      MOCLDY    51  49  94 CALM      29.88F
$$

NDZ018>021-031>035-040>046-250700-
SOUTHWEST NORTH DAKOTA

CITY           SKY/WX    TMP DP  RH WIND       PRES   REMARKS
BISMARCK       LGT RAIN  57  54  89 E6        29.90S
6HR MIN TEMP:  57; 6HR MAX TEMP:  65; 6HR PCP: TRACE;

DICKINSON      CLOUDY    56  48  74 N3        29.88F
GARRISON         N/A     60  51  72 CALM      29.89F
6HR MIN TEMP:  59; 6HR MAX TEMP:  69;

HETTINGER ARPT CLOUDY    55  49  80 E7        29.89F
$$

NDZ004>008-012>016-024-026-027-054-250700-
NORTHEAST NORTH DAKOTA

CITY           SKY/WX    TMP DP  RH WIND       PRES   REMARKS
GRAND FORKS    CLOUDY    58  51  78 N3        29.85F
GRND FRKS AFB  CLOUDY    53  50  89 N2        29.86F
DEVILS LAKE    CLOUDY    57  48  72 CALM      29.87F
$$

NDZ022-023-025-028>030-036>039-047>053-250700-
SOUTHEAST NORTH DAKOTA

CITY           SKY/WX    TMP DP  RH WIND       PRES   REMARKS
FARGO          CLOUDY    62  54  74 E5        29.84F
6HR MIN TEMP:  62; 6HR MAX TEMP:  69;

JAMESTOWN      LGT RAIN  57  55  93 NW3       29.86F
$$



USA.gov is the U.S. government's official web portal to all federal, state and local government web resources and services.